Location: Buffign�court
(47.8126°N, 6.0176°E)
Time: 16:11:48
(UTC+00:00)

ERS-1 Rocket - Pass Details

Date: 16 June 2021
Orbit: 752 x 758 km, 98.4° (Epoch: 04 August)

Event Time Altitude Azimuth Distance (km) Brightness Sun altitude
Exits shadow 21:24:40 15° 177° (S) 1,987 4.6 -12.9°
Maximum altitude 21:28:54 65° 258° (WSW) 836 3.3 -13.2°
Drops below altitude 10° 21:33:57 10° 340° (NNW) 2,300 6.9 -13.6°
Sets 21:36:17 0° 344° (NNW) 3,230 8.0 -13.8°
